FW1458 Weather Reports


Display with metric or nautical units.
time (UTC)temp
F
wind
direction
speed
MPH
gust
MPH
rain 1hr
in
rain 24hr
in
rain mn
in
humidity
%
barometer
mb
20200328210048 72 226 13.0 24.0 0.00 0.16 0.16 33 1005.0
20200328204524 72 254 8.0 18.0 0.00 0.27 0.16 32 1005.0
20200328203032 72 237 13.0 20.0 0.00 0.27 0.16 29 1004.9
20200328201548 72 242 9.0 22.0 0.00 0.27 0.16 31 1005.1
20200328200107 71 245 11.0 23.0 0.00 0.27 0.16 30 1005.2
20200328194522 72 230 11.0 24.0 0.00 0.27 0.16 26 1004.9
20200328193048 72 231 13.0 21.0 0.00 0.27 0.16 23 1005.0
20200328191544 73 265 9.0 21.0 0.00 0.27 0.16 22 1004.8
20200328190022 72 238 10.0 20.0 0.00 0.27 0.16 22 1004.9
20200328184551 72 265 11.0 26.0 0.00 0.27 0.16 23 1005.0
20200328183037 72 251 11.0 21.0 0.00 0.27 0.16 24 1005.1
20200328181607 72 255 8.0 19.0 0.00 0.27 0.16 26 1005.4
20200328180022 70 229 9.0 17.0 0.00 0.27 0.16 27 1005.2
20200328174526 72 245 10.0 20.0 0.00 0.27 0.16 28 1005.0
20200328173018 70 247 9.0 24.0 0.00 0.27 0.16 30 1004.9
20200328171521 70 274 11.0 24.0 0.00 0.27 0.16 27 1004.9
20200328170029 69 245 13.0 27.0 0.00 0.27 0.16 27 1004.9
20200328164532 69 218 15.0 22.0 0.00 0.27 0.16 29 1004.7
20200328163013 69 241 8.0 18.0 0.00 0.27 0.16 36 1004.5
20200328161545 68 289 5.0 21.0 0.00 0.27 0.16 40 1004.5
20200328160017 66 250 12.0 25.0 0.00 0.27 0.16 36 1005.0
20200328154532 69 208 15.0 21.0 0.00 0.27 0.16 42 1004.6
20200328153005 68 241 12.0 23.0 0.00 0.27 0.16 45 1004.3
20200328151503 67 223 8.0 21.0 0.00 0.27 0.16 54 1004.1
20200328150135 67 182 8.0 18.0 0.00 0.27 0.16 63 1004.2
20200328144617 67 211 4.0 10.0 0.00 0.27 0.16 73 1004.2
20200328143226 67 231 4.0 8.0 0.00 0.27 0.16 73 1004.0
20200328141741 67 195 5.0 9.0 0.00 0.27 0.16 75 1003.9
20200328140146 67 234 8.0 14.0 0.00 0.27 0.16 79 1003.8
20200328134651 67 243 9.0 15.0 0.00 0.27 0.16 88 1003.5
20200328133104 67 229 3.0 9.0 0.00 0.27 0.16 92 1003.2
20200328131547 67 270 2.0 6.0 0.01 0.27 0.16 91 1002.6
20200328130106 67 205 3.0 6.0 0.04 0.27 0.16 91 1002.7
20200328124642 67 194 3.0 6.0 0.06 0.27 0.16 90 1002.9
20200328123117 68 227 2.0 8.0 0.07 0.27 0.16 88 1002.6
20200328121613 68 225 8.0 17.0 0.06 0.26 0.15 87 1003.1
20200328120122 69 203 4.0 9.0 0.11 0.23 0.12 86 1004.0
20200328114701 69 228 4.0 9.0 0.10 0.21 0.10 85 1002.6
20200328113058 70 240 4.0 11.0 0.09 0.20 0.09 85 1002.1
20200328111604 70 198 12.0 31.0 0.09 0.20 0.09 83 1002.1
20200328110034 72 229 10.0 20.0 0.01 0.12 0.01 81 1002.2
20200328104534 73 217 11.0 25.0 0.00 0.11 0.00 77 1001.1
20200328103042 73 194 11.0 18.0 0.00 0.11 0.00 77 1000.4
20200328101541 73 203 9.0 18.0 0.00 0.11 0.00 78 1000.1
20200328100039 73 185 9.0 18.0 0.00 0.11 0.00 79 1000.1
20200328094552 72 171 11.0 20.0 0.00 0.11 0.00 83 999.7
20200328093052 72 196 6.0 13.0 0.00 0.11 0.00 86 1000.3
20200328091523 71 194 6.0 11.0 0.00 0.11 0.00 88 1000.7
20200328090016 69 211 5.0 8.0 0.00 0.11 0.00 91 1001.1
20200328084516 69 152 3.0 6.0 0.00 0.11 0.00 90 1001.2
20200328083014 68 139 2.0 4.0 0.00 0.11 0.00 90 1001.3
20200328081535 68 167 2.0 6.0 0.00 0.11 0.00 90 1001.2
20200328080024 68 130 2.0 6.0 0.00 0.11 0.00 90 1001.2
20200328074532 68 148 2.0 6.0 0.00 0.11 0.00 89 1001.4
20200328073042 68 150 2.0 5.0 0.00 0.11 0.00 90 1001.6
20200328071526 68 159 0.0 3.0 0.00 0.11 0.00 89 1001.7
20200328070020 69 162 0.0 3.0 0.00 0.11 0.00 88 1001.7
20200328064503 69 180 2.0 5.0 0.00 0.11 0.00 88 1002.0
20200328061729 70 179 3.0 7.0 0.00 0.11 0.00 87 1002.0
20200328060245 70 203 3.0 6.0 0.00 0.11 0.00 86 1002.7
20200328054637 70 194 3.0 8.0 0.00 0.11 0.00 86 1002.8
20200328053253 70 213 2.0 8.0 0.00 0.11 0.00 85 1002.9
20200328051643 70 200 4.0 9.0 0.00 0.11 0.00 85 1003.2
20200328050210 70 207 3.0 9.0 0.00 0.11 0.00 86 1003.1
20200328044706 70 220 5.0 11.0 0.00 0.11 0.11 85 1003.5
20200328043054 70 164 5.0 9.0 0.00 0.11 0.11 85 1003.4
20200328041628 70 172 5.0 7.0 0.00 0.11 0.11 85 1003.4
20200328040139 70 141 4.0 9.0 0.00 0.11 0.11 85 1003.6
20200328034556 70 178 5.0 9.0 0.00 0.11 0.11 84 1003.2
20200328033243 71 148 5.0 9.0 0.00 0.11 0.11 84 1003.4
20200328031635 71 188 5.0 9.0 0.00 0.11 0.11 83 1003.3
20200328030146 71 163 3.0 6.0 0.00 0.11 0.11 83 1003.2
20200328024638 71 159 3.0 7.0 0.00 0.11 0.11 82 1002.9
20200328023100 72 183 3.0 8.0 0.00 0.11 0.11 82 1003.3
20200328021619 72 186 5.0 10.0 0.00 0.11 0.11 81 1002.7
20200328020050 72 159 5.0 12.0 0.00 0.11 0.11 80 1003.0
20200328014623 72 174 6.0 15.0 0.00 0.11 0.11 80 1002.6
20200328013118 72 169 7.0 15.0 0.00 0.11 0.11 80 1002.2
20200328011539 72 205 8.0 12.0 0.00 0.11 0.11 80 1002.4
20200328010117 72 169 6.0 14.0 0.00 0.11 0.11 80 1002.4
20200328004611 72 192 6.0 12.0 0.00 0.11 0.11 80 1002.5
20200328003108 72 199 5.0 14.0 0.00 0.11 0.11 80 1002.6
20200328001550 72 186 4.0 9.0 0.00 0.11 0.11 81 1002.5
20200328000213 71 165 6.0 12.0 0.00 0.11 0.11 82 1002.4
20200327234546 71 174 4.0 12.0 0.00 0.11 0.11 83 1002.6
20200327233045 71 151 8.0 16.0 0.00 0.11 0.11 83 1002.3
20200327231635 71 181 6.0 15.0 0.00 0.11 0.11 83 1002.5
20200327230100 72 150 8.0 14.0 0.00 0.11 0.11 80 1002.6
20200327224550 73 176 7.0 17.0 0.00 0.11 0.11 78 1002.8
20200327223120 73 213 6.0 16.0 0.00 0.11 0.11 78 1003.0
20200327221635 73 230 9.0 18.0 0.00 0.11 0.11 78 1003.2
20200327220104 73 163 8.0 14.0 0.00 0.11 0.11 78 1002.9
20200327214543 73 144 7.0 15.0 0.00 0.11 0.11 78 1002.2
20200327213050 74 221 8.0 15.0 0.00 0.11 0.11 78 1002.4
20200327211617 74 137 8.0 12.0 0.11 0.11 0.11 79 1002.1